Weather in Yezhevo

Russia / Udmurt Republic     58°01′31″N   52°13′36″E
temp.,
°C
wind,
m/s
gust,
m/s
humid.,
%
clouds,
%
prec.,
mm/h
press.,
hPa
HPBL,
m
11 may, tue
tue1101:00+14n2491100 0.6 102391
04:00+13ne3495100 0.6 1025102
07:00+14n349097 0.0 1026284
10:00+15n337954 0.0 1028494
13:00+20n32586 0.0 10281086
16:00+21nnw32535 0.0 10271244
19:00+19n35655 0.0 1028179
22:00+14ne36805 0.0 1029104
12 may, wed
wed1201:00+12ene23871 0.0 103053
04:00+11ene239140 0.0 103039
07:00+14e237347 0.0 1031192
10:00+19e22580 0.0 1030643
13:00+23ese11480 0.0 10291342
16:00+23wnw22430 0.0 10281653
19:00+21nne23570 0.0 102856
22:00+17ene11631 0.0 102811
13 may, thu
thu1301:00+15e11650 0.0 102811
04:00+14e11680 0.0 102911
07:00+17e226210 0.0 1029124
10:00+22se23502 0.0 1028612
13:00+25s243614 0.0 10272468
16:00+26ssw44337 0.0 10262518
19:00+22ssw375071 0.0 1025188
22:00+17ssw3555100 0.0 102563
14 may, fri
fri1401:00+16ssw34637 0.0 102556
04:00+14s34647 0.0 102558
07:00+17s376013 0.0 1025191
10:00+21ssw4747100 0.1 1024630
13:00+24ssw573784 0.0 10231225
16:00+25ssw583420 0.0 10222062
19:00+22ssw365589 0.0 1021125
22:00+17ssw3771100 0.0 1021120
15 may, sat
sat1501:00+16ssw3778100 0.0 1021122
04:00+15ssw368276 0.0 1021111
07:00+18ssw47685 0.0 1021214
10:00+23sw574874 0.0 1020647
13:00+27sw69365 0.0 10191501
16:00+27sw593420 0.0 10181674
19:00+24sw39515 0.0 1018257
22:00+19ssw412615 0.0 1017237